星链-31629 (STARLINK-31629 )

导读

STARLINK-31629是美国SpaceX公司星链星座的组成卫星,于2024年3月19日由猎鹰9号火箭发射升空,被送入近地轨道。作为星链网络的一员,它的任务是为全球提供高速低延迟宽带互联网服务,重点覆盖偏远、基础设施匮乏地区,助力实现全球全域互联,目前该卫星已在轨正常运行。

Basic Information
目录编号:
59255
目录名称:
STARLINK-31629
国际标识:
2024-050B
轨道中心:
EARTH
卫星名称:
星链-31629
卫星全名:
星链-31629 (STARLINK-31629 )
卫星状态:
在轨 (已飞行899 天)
发射日期:
2024-03-19 UTC
国别 :
美国 (US)
星等 :
--
Orbit Information
数据来源 国际轨道数据
星历时间: 2026-09-04T03:46:24+0800
9小时前
查看轨道信息
半长轴: 6841.713km
偏心率: 0.0001055
轨道倾角: 53.162°
近地点辐角 121.394°
升交点赤经 73.442°
平近点角 238.717°
近地点: 462.854km
远地点: 464.298km
周期: 93.866分钟
每日圈数: 15.341067
Detailed Information
固有亮度:
5
最大亮度:
0.3
卫星平台:
Starlink v2.0 mini
覆盖范围:
全球
运营商:
太空探索技术公司
运营商所在国:
美国
制造商(研发单位):
太空探索技术公司
制造商所在国:
美国
使用方式:
暂无
Satellite Introduction
星链(Starlink)计划是由太空探索技术公司(SpaceX)提出的一个巨型低轨卫星互联网星座项目,计划在2019年至2024年间在太空搭建由约1.2万颗卫星组成的“星链”网络,其中1584颗将部署在地球上空550千米处的近地轨道,并从2020年开始工作。该卫星仍在工作。
2D Orbit Map
3D Orbit Map
Orbit Altitude Analysis Chart
Orbit Inclination Analysis Chart
Orbit Comprehensive Analysis Chart
View Comprehensive Chart